User: anonymous   Login
Location: Unspecified
(0.0000°N, 0.0000°E)
Time: 17:32:29
(UTC+00:00)
Language:

Gonets-D1 - Orbit

View from above orbital plane
View from above orbital plane
View from above satellite
View from above satellite

Ground track
Ground track

The orbit data is extracted from the following two-line orbital elements,

1 23787U 96009A   18050.45328006  .00000016  00000-0  27483-4 0  9998
2 23787  82.5757  85.2069 0011998 108.5307 251.7089 12.64033235 15259
Epoch (UTC): 19 February 2018 10:52:43
Eccentricity: 0.0011998
inclination: 82.5757°
perigee height: 1397 km
apogee height: 1415 km
right ascension of ascending node: 85.2069°
argument of perigee: 108.5307°
revolutions per day: 12.64033235
mean anomaly at epoch: 251.7089°
orbit number at epoch: 1525

The dashed part of the orbit path shows where the satellite is in the earth's shadow,  

DLR